Regional Weather Roundup
Issued by NWS

Home | Current Version | Previous Version | Graphics & Text | Print | Product List | Glossary On
Versions: 1 2 3 4 5 6 7 8 9 10 11 12 13 14 15 16 17 18 19 20 21 22 23 24 25 26 27 28 29 30 31 32 33 34 35 36 37 38 39 40 41 42 43 44 45 46 47 48 49 50
000
ASUS43 KBIS 240710
RWRND

NORTH DAKOTA REGIONAL WEATHER ROUNDUP
NATIONAL WEATHER SERVICE BISMARCK ND
200 AM CDT SUN JUL 24 2016

NOTE: "FAIR" INDICATES FEW OR NO CLOUDS BELOW 12,000 FEET WITH NO
SIGNIFICANT WEATHER AND/OR OBSTRUCTIONS TO VISIBILITY.


NDZ001>003-009>011-017-240800-
NORTHWEST NORTH DAKOTA

CITY           SKY/WX    TMP DP  RH WIND       PRES   REMARKS
WILLISTON      CLEAR     62  53  72 W12       29.99R
MINOT          CLEAR     69  58  67 W15       29.89R
MINOT AFB      CLEAR     63  59  87 W10       29.87S
$$

NDZ018>021-031>035-040>046-240800-
SOUTHWEST NORTH DAKOTA

CITY           SKY/WX    TMP DP  RH WIND       PRES   REMARKS
BISMARCK       CLEAR     66  57  72 W9        29.95R
DICKINSON      CLEAR     55  51  86 W9        30.01S
GARRISON         N/A     62  58  86 NW12      29.93R
HETTINGER ARPT CLEAR     52  46  80 NW5       30.05R
$$

NDZ004>008-012>016-024-026-027-054-240800-
NORTHEAST NORTH DAKOTA

CITY           SKY/WX    TMP DP  RH WIND       PRES   REMARKS
GRAND FORKS    CLEAR     66  61  84 W12       29.75R
GRND FRKS AFB  CLEAR     64  61  88 W8        29.77R
DEVILS LAKE    CLEAR     65  60  84 W13       29.83R
$$

NDZ022-023-025-028>030-036>039-047>053-240800-
SOUTHEAST NORTH DAKOTA

CITY           SKY/WX    TMP DP  RH WIND       PRES   REMARKS
FARGO          CLEAR     70  66  87 W10       29.79R
JAMESTOWN      CLEAR     66  58  75 NW10      29.87R
$$





USA.gov is the U.S. government's official web portal to all federal, state and local government web resources and services.